Home   Weather   Kopervik   Past weeks

Flag for Norway Past Weather in Kopervik, Norway — Yesterday and Last 2 Weeks

Now
41 °F

Drizzle. Fog.


Feels Like: 33 °F
Forecast: 43 / 45 °F
Wind: 15 mph from Southeast

Location: Karmoy

Current Time: Jan 17, 2017 at 4:23:02 pm

Latest Report: Jan 17, 2017 at 3:50 pm


Visibility: 2 mi

Pressure: 30.39 "Hg

Humidity: 93%

Dew Point: 39 °F

Location of KopervikLocation

Past Weather in Kopervik — Graph

°F

Kopervik Temperature Yesterday

Maximum temperature yesterday: 36 °F (at 11:50 pm)
Minimum temperature yesterday: 18 °F (at 3:50 am)
Average temperature yesterday: 27 °F

High & Low Weather Summary for the Past Weeks

 TemperatureHumidityPressure
High46 °F (Jan 3, 9:20 am)100% (Jan 2, 10:50 pm)30.60 "Hg (Jan 2, 10:50 pm)
Low18 °F (Jan 16, 3:50 am)42% (Jan 4, 12:50 pm)28.53 "Hg (Jan 11, 8:20 am)
Average37 °F83%29.81 "Hg
* Reported Jan 2 2:20 pm — Jan 17 2:50 pm, Kopervik, Weather by CustomWeather, © 2017

Note: Actual official high and low records may vary slightly from our data, if they occured in-between our weather recording intervals... More about our weather records

Advertising

Kopervik Weather History for the Previous 24 Hours

Scroll right to see more
 ConditionsComfort  
Time TempWeatherWind HumidityBarometerVisibility
2:50 pm
Tue, Jan 17
41 °FDrizzle. Fog.15 mph93%30.39 "Hg2 mi
2:20 pm41 °FDrizzle. Fog.15 mph93%30.39 "Hg2 mi
1:50 pm39 °FDrizzle. Fog.14 mph100%30.39 "Hg2 mi
1:20 pm39 °FDrizzle. Fog.14 mph100%30.42 "Hg2 mi
12:50 pm39 °FDrizzle. Fog.15 mph100%30.42 "Hg1 mi
12:20 pm39 °FDrizzle. Fog.16 mph93%30.42 "Hg1 mi
11:50 am37 °FDrizzle. Fog.17 mph100%30.42 "Hg1 mi
11:20 am37 °FDrizzle. Fog.17 mph93%30.42 "Hg1 mi
10:50 am37 °FDrizzle. Fog.17 mph93%30.42 "Hg1 mi
10:20 am36 °FLight rain. Fog.18 mph100%30.42 "Hg1 mi
9:50 am36 °FDrizzle. Fog.18 mph100%30.42 "Hg1 mi
9:20 am36 °FDrizzle. Fog.17 mph93%30.42 "Hg1 mi
8:50 am36 °FDrizzle. Fog.18 mph93%30.42 "Hg1 mi
8:20 am36 °FDrizzle. Fog.21 mph93%30.39 "Hg1 mi
7:50 am34 °FDrizzle. Fog.20 mph100%30.39 "Hg2 mi
7:20 am34 °FDrizzle. Fog.21 mph100%30.39 "Hg1 mi
6:50 am34 °FDrizzle. Fog.21 mph100%30.39 "Hg1 mi
6:20 am34 °FLight rain. Low clouds.18 mph93%30.39 "Hg1 mi
5:50 am34 °FLight rain. Low clouds.18 mph93%30.42 "Hg1 mi
5:20 am34 °FLight rain. Mostly cloudy.17 mph100%30.42 "Hg1 mi
4:50 am36 °FLight rain. Low clouds.18 mph93%30.42 "Hg1 mi
4:20 am36 °FFog.17 mph93%30.42 "Hg2 mi
3:50 am34 °FOvercast.17 mph93%30.42 "Hg4 mi
3:20 am36 °FMostly cloudy.17 mph87%30.42 "Hg4 mi
2:50 am36 °FFog.17 mph87%30.42 "Hg2 mi
2:20 am34 °FMostly cloudy.15 mph93%30.42 "HgN/A
1:50 am34 °FLight rain. Mostly cloudy.15 mph93%30.42 "Hg4 mi
1:20 am36 °FLight rain. Overcast.15 mph81%30.42 "Hg5 mi
12:50 am36 °FMostly cloudy.15 mph81%30.42 "HgN/A
12:20 am36 °FLight rain. Overcast.14 mph81%30.42 "HgN/A
11:50 pm
Mon, Jan 16
36 °FOvercast.15 mph75%30.42 "HgN/A
11:20 pm34 °FMostly cloudy.14 mph75%30.42 "HgN/A
10:50 pm34 °FDrizzle. Mostly cloudy.15 mph75%30.42 "HgN/A
10:20 pm34 °FOvercast.13 mph75%30.42 "HgN/A
9:50 pm34 °FPartly cloudy.16 mph75%30.42 "HgN/A
9:20 pm34 °FPartly cloudy.15 mph70%30.42 "HgN/A
8:50 pm34 °FClear.13 mph65%30.42 "Hg10 mi
8:20 pm34 °FClear.13 mph70%30.42 "Hg10 mi
7:50 pm34 °FClear.13 mph70%30.42 "Hg10 mi
7:20 pm34 °FClear.12 mph65%30.42 "Hg10 mi
6:50 pm32 °FClear.9 mph69%30.42 "Hg10 mi
6:20 pm32 °FClear.13 mph75%30.39 "Hg10 mi
5:50 pm32 °FClear.12 mph69%30.39 "Hg10 mi
5:20 pm32 °FClear.10 mph69%30.42 "Hg10 mi
4:50 pm30 °FClear.9 mph75%30.39 "Hg10 mi
4:20 pm30 °FClear.12 mph75%30.39 "Hg10 mi
Weather by CustomWeather, © 2017

See weather overviewHow to use our weather pages